Year,Month,Day,Hour,Minute,Value (Times are PST for temperature in C)
2013,08,05,00,00,14.70
2013,08,05,00,01,14.60
2013,08,05,00,02,14.60
2013,08,05,00,03,14.60
2013,08,05,00,04,14.50
2013,08,05,00,05,14.50
2013,08,05,00,06,14.50
2013,08,05,00,07,14.40
2013,08,05,00,08,14.40
2013,08,05,00,09,14.30
2013,08,05,00,10,14.30
2013,08,05,00,11,14.30
2013,08,05,00,12,14.30
2013,08,05,00,13,14.30
2013,08,05,00,14,14.30
2013,08,05,00,15,14.20
2013,08,05,00,16,14.20
2013,08,05,00,17,14.20
2013,08,05,00,18,14.20
2013,08,05,00,19,14.10
2013,08,05,00,20,14.10
2013,08,05,00,21,14.10
2013,08,05,00,22,14.10
2013,08,05,00,23,14.00
2013,08,05,00,24,14.00
2013,08,05,00,25,14.00
2013,08,05,00,26,13.90
2013,08,05,00,27,13.90
2013,08,05,00,28,13.90
2013,08,05,00,29,13.90
2013,08,05,00,30,13.90
2013,08,05,00,31,13.90
2013,08,05,00,32,13.90
2013,08,05,00,33,13.80
2013,08,05,00,34,13.80
2013,08,05,00,35,13.80
2013,08,05,00,36,13.80
2013,08,05,00,37,13.80
2013,08,05,00,38,13.80
2013,08,05,00,39,13.70
2013,08,05,00,40,13.70
2013,08,05,00,41,13.70
2013,08,05,00,42,13.70
2013,08,05,00,43,13.60
2013,08,05,00,44,13.60
2013,08,05,00,45,13.60
2013,08,05,00,46,13.60
2013,08,05,00,47,13.50
2013,08,05,00,48,13.50
2013,08,05,00,49,13.50
2013,08,05,00,50,13.50
2013,08,05,00,51,13.40
2013,08,05,00,52,13.40
2013,08,05,00,53,13.40
2013,08,05,00,54,13.40
2013,08,05,00,55,13.30
2013,08,05,00,56,13.30
2013,08,05,00,57,13.30
2013,08,05,00,58,13.30
2013,08,05,00,59,13.30
2013,08,05,01,00,13.30
2013,08,05,01,01,13.20
2013,08,05,01,02,13.20
2013,08,05,01,03,13.20
2013,08,05,01,04,13.20
2013,08,05,01,05,13.20
2013,08,05,01,06,13.20
2013,08,05,01,07,13.10
2013,08,05,01,08,13.10
2013,08,05,01,09,13.10
2013,08,05,01,10,13.10
2013,08,05,01,11,13.10
2013,08,05,01,12,13.10
2013,08,05,01,13,13.00
2013,08,05,01,14,13.00
2013,08,05,01,15,13.00
2013,08,05,01,16,12.90
2013,08,05,01,17,12.90
2013,08,05,01,18,12.90
2013,08,05,01,19,12.90
2013,08,05,01,20,12.90
2013,08,05,01,21,12.80
2013,08,05,01,22,12.80
2013,08,05,01,23,12.80
2013,08,05,01,24,12.80
2013,08,05,01,25,12.80
2013,08,05,01,26,12.80
2013,08,05,01,27,12.80
2013,08,05,01,28,12.80
2013,08,05,01,29,12.80
2013,08,05,01,30,12.80
2013,08,05,01,31,12.80
2013,08,05,01,32,12.70
2013,08,05,01,33,12.70
2013,08,05,01,34,12.70
2013,08,05,01,35,12.70
2013,08,05,01,36,12.70
2013,08,05,01,37,12.70
2013,08,05,01,38,12.70
2013,08,05,01,39,12.70
2013,08,05,01,40,12.60
2013,08,05,01,41,12.60
2013,08,05,01,42,12.60
2013,08,05,01,43,12.60
2013,08,05,01,44,12.60
2013,08,05,01,45,12.50
2013,08,05,01,46,12.50
2013,08,05,01,47,12.40
2013,08,05,01,48,12.40
2013,08,05,01,49,12.40
2013,08,05,01,50,12.40
2013,08,05,01,51,12.40
2013,08,05,01,52,12.40
2013,08,05,01,53,12.40
2013,08,05,01,54,12.40
2013,08,05,01,55,12.40
2013,08,05,01,56,12.40
2013,08,05,01,57,12.40
2013,08,05,01,58,12.40
2013,08,05,01,59,12.40
2013,08,05,02,00,12.40
2013,08,05,02,01,12.30
2013,08,05,02,02,12.30
2013,08,05,02,03,12.30
2013,08,05,02,04,12.30
2013,08,05,02,05,12.30
2013,08,05,02,06,12.30
2013,08,05,02,07,12.20
2013,08,05,02,08,12.20
2013,08,05,02,09,12.20
2013,08,05,02,10,12.20
2013,08,05,02,11,12.20
2013,08,05,02,12,12.20
2013,08,05,02,13,12.10
2013,08,05,02,14,12.10
2013,08,05,02,15,12.10
2013,08,05,02,16,12.10
2013,08,05,02,17,12.10
2013,08,05,02,18,12.10
2013,08,05,02,19,12.00
2013,08,05,02,20,12.00
2013,08,05,02,21,12.00
2013,08,05,02,22,12.00
2013,08,05,02,23,11.90
2013,08,05,02,24,11.90
2013,08,05,02,25,11.90
2013,08,05,02,26,11.90
2013,08,05,02,27,11.90
2013,08,05,02,28,11.90
2013,08,05,02,29,11.80
2013,08,05,02,30,11.80
2013,08,05,02,31,11.80
2013,08,05,02,32,11.80
2013,08,05,02,33,11.80
2013,08,05,02,34,11.80
2013,08,05,02,35,11.70
2013,08,05,02,36,11.70
2013,08,05,02,37,11.70
2013,08,05,02,38,11.70
2013,08,05,02,39,11.70
2013,08,05,02,40,11.70
2013,08,05,02,41,11.60
2013,08,05,02,42,11.60
2013,08,05,02,43,11.60
2013,08,05,02,44,11.60
2013,08,05,02,45,11.60
2013,08,05,02,46,11.60
2013,08,05,02,47,11.50
2013,08,05,02,48,11.50
2013,08,05,02,49,11.50
2013,08,05,02,50,11.50
2013,08,05,02,51,11.50
2013,08,05,02,52,11.40
2013,08,05,02,53,11.40
2013,08,05,02,54,11.40
2013,08,05,02,55,11.40
2013,08,05,02,56,11.40
2013,08,05,02,57,11.30
2013,08,05,02,58,11.30
2013,08,05,02,59,11.30
2013,08,05,03,00,11.30
2013,08,05,03,01,11.30
2013,08,05,03,02,11.30
2013,08,05,03,03,11.30
2013,08,05,03,04,11.30
2013,08,05,03,05,11.30
2013,08,05,03,06,11.30
2013,08,05,03,07,11.30
2013,08,05,03,08,11.20
2013,08,05,03,09,11.20
2013,08,05,03,10,11.20
2013,08,05,03,11,11.20
2013,08,05,03,12,11.20
2013,08,05,03,13,11.20
2013,08,05,03,14,11.20
2013,08,05,03,15,11.20
2013,08,05,03,16,11.20
2013,08,05,03,17,11.10
2013,08,05,03,18,11.10
2013,08,05,03,19,11.10
2013,08,05,03,20,11.10
2013,08,05,03,21,11.10
2013,08,05,03,22,11.00
2013,08,05,03,23,11.00
2013,08,05,03,24,11.00
2013,08,05,03,25,11.00
2013,08,05,03,26,11.00
2013,08,05,03,27,10.90
2013,08,05,03,28,10.90
2013,08,05,03,29,10.90
2013,08,05,03,30,10.90
2013,08,05,03,31,10.90
2013,08,05,03,32,10.90
2013,08,05,03,33,10.90
2013,08,05,03,34,10.90
2013,08,05,03,35,10.90
2013,08,05,03,36,10.80
2013,08,05,03,37,10.80
2013,08,05,03,38,10.80
2013,08,05,03,39,10.80
2013,08,05,03,40,10.80
2013,08,05,03,41,10.80
2013,08,05,03,42,10.80
2013,08,05,03,43,10.80
2013,08,05,03,44,10.70
2013,08,05,03,45,10.70
2013,08,05,03,46,10.70
2013,08,05,03,47,10.70
2013,08,05,03,48,10.70
2013,08,05,03,49,10.70
2013,08,05,03,50,10.70
2013,08,05,03,51,10.70
2013,08,05,03,52,10.70
2013,08,05,03,53,10.70
2013,08,05,03,54,10.70
2013,08,05,03,55,10.60
2013,08,05,03,56,10.60
2013,08,05,03,57,10.60
2013,08,05,03,58,10.60
2013,08,05,03,59,10.60
2013,08,05,04,00,10.60
2013,08,05,04,01,10.60
2013,08,05,04,02,10.60
2013,08,05,04,03,10.60
2013,08,05,04,04,10.60
2013,08,05,04,05,10.50
2013,08,05,04,06,10.50
2013,08,05,04,07,10.50
2013,08,05,04,08,10.50
2013,08,05,04,09,10.50
2013,08,05,04,10,10.40
2013,08,05,04,11,10.40
2013,08,05,04,12,10.40
2013,08,05,04,13,10.40
2013,08,05,04,14,10.40
2013,08,05,04,15,10.40
2013,08,05,04,16,10.40
2013,08,05,04,17,10.30
2013,08,05,04,18,10.30
2013,08,05,04,19,10.30
2013,08,05,04,20,10.30
2013,08,05,04,21,10.30
2013,08,05,04,22,10.30
2013,08,05,04,23,10.30
2013,08,05,04,24,10.30
2013,08,05,04,25,10.30
2013,08,05,04,26,10.30
2013,08,05,04,27,10.30
2013,08,05,04,28,10.20
2013,08,05,04,29,10.20
2013,08,05,04,30,10.20
2013,08,05,04,31,10.20
2013,08,05,04,32,10.20
2013,08,05,04,33,10.20
2013,08,05,04,34,10.20
2013,08,05,04,35,10.20
2013,08,05,04,36,10.20
2013,08,05,04,37,10.10
2013,08,05,04,38,10.10
2013,08,05,04,39,10.10
2013,08,05,04,40,10.10
2013,08,05,04,41,10.10
2013,08,05,04,42,10.10
2013,08,05,04,43,10.10
2013,08,05,04,44,10.00
2013,08,05,04,45,10.00
2013,08,05,04,46,10.00
2013,08,05,04,47,10.00
2013,08,05,04,48,10.00
2013,08,05,04,49,10.00
2013,08,05,04,50,10.00
2013,08,05,04,51,10.00
2013,08,05,04,52,9.90
2013,08,05,04,53,9.90
2013,08,05,04,54,9.90
2013,08,05,04,55,9.90
2013,08,05,04,56,9.90
2013,08,05,04,57,9.90
2013,08,05,04,58,9.90
2013,08,05,04,59,9.80
2013,08,05,05,00,9.80
2013,08,05,05,01,9.80
2013,08,05,05,02,9.80
2013,08,05,05,03,9.80
2013,08,05,05,04,9.80
2013,08,05,05,05,9.80
2013,08,05,05,06,9.80
2013,08,05,05,07,9.80
2013,08,05,05,08,9.80
2013,08,05,05,09,9.70
2013,08,05,05,10,9.70
2013,08,05,05,11,9.70
2013,08,05,05,12,9.70
2013,08,05,05,13,9.70
2013,08,05,05,14,9.70
2013,08,05,05,15,9.70
2013,08,05,05,16,9.70
2013,08,05,05,17,9.60
2013,08,05,05,18,9.60
2013,08,05,05,19,9.60
2013,08,05,05,20,9.60
2013,08,05,05,21,9.60
2013,08,05,05,22,9.60
2013,08,05,05,23,9.60
2013,08,05,05,24,9.60
2013,08,05,05,25,9.60
2013,08,05,05,26,9.50
2013,08,05,05,27,9.50
2013,08,05,05,28,9.50
2013,08,05,05,29,9.50
2013,08,05,05,30,9.50
2013,08,05,05,31,9.40
2013,08,05,05,32,9.40
2013,08,05,05,33,9.40
2013,08,05,05,34,9.40
2013,08,05,05,35,9.40
2013,08,05,05,36,9.40
2013,08,05,05,37,9.40
2013,08,05,05,38,9.40
2013,08,05,05,39,9.40
2013,08,05,05,40,9.40
2013,08,05,05,41,9.40
2013,08,05,05,42,9.30
2013,08,05,05,43,9.30
2013,08,05,05,44,9.30
2013,08,05,05,45,9.30
2013,08,05,05,46,9.30
2013,08,05,05,47,9.30
2013,08,05,05,48,9.30
2013,08,05,05,49,9.30
2013,08,05,05,50,9.30
2013,08,05,05,51,9.30
2013,08,05,05,52,9.30
2013,08,05,05,53,9.30
2013,08,05,05,54,9.30
2013,08,05,05,55,9.30
2013,08,05,05,56,9.20
2013,08,05,05,57,9.20
2013,08,05,05,58,9.20
2013,08,05,05,59,9.20
2013,08,05,06,00,9.20
2013,08,05,06,01,9.20
2013,08,05,06,02,9.20
2013,08,05,06,03,9.20
2013,08,05,06,04,9.20
2013,08,05,06,05,9.20
2013,08,05,06,06,9.20
2013,08,05,06,07,9.20
2013,08,05,06,08,9.20
2013,08,05,06,09,9.20
2013,08,05,06,10,9.20
2013,08,05,06,11,9.20
2013,08,05,06,12,9.20
2013,08,05,06,13,9.20
2013,08,05,06,14,9.20
2013,08,05,06,15,9.20
2013,08,05,06,16,9.20
2013,08,05,06,17,9.20
2013,08,05,06,18,9.20
2013,08,05,06,19,9.20
2013,08,05,06,20,9.20
2013,08,05,06,21,9.20
2013,08,05,06,22,9.20
2013,08,05,06,23,9.20
2013,08,05,06,24,9.20
2013,08,05,06,25,9.20
2013,08,05,06,26,9.20
2013,08,05,06,27,9.20
2013,08,05,06,28,9.20
2013,08,05,06,29,9.20
2013,08,05,06,30,9.20
2013,08,05,06,31,9.20
2013,08,05,06,32,9.20
2013,08,05,06,33,9.20
2013,08,05,06,34,9.20
2013,08,05,06,35,9.20
2013,08,05,06,36,9.20
2013,08,05,06,37,9.20
2013,08,05,06,38,9.20
2013,08,05,06,39,9.20
2013,08,05,06,40,9.20
2013,08,05,06,41,9.30
2013,08,05,06,42,9.30
2013,08,05,06,43,9.30
2013,08,05,06,44,9.30
2013,08,05,06,45,9.30
2013,08,05,06,46,9.30
2013,08,05,06,47,9.30
2013,08,05,06,48,9.30
2013,08,05,06,49,9.30
2013,08,05,06,50,9.30
2013,08,05,06,51,9.30
2013,08,05,06,52,9.30
2013,08,05,06,53,9.30
2013,08,05,06,54,9.30
2013,08,05,06,55,9.30
2013,08,05,06,56,9.40
2013,08,05,06,57,9.40
2013,08,05,06,58,9.40
2013,08,05,06,59,9.40
2013,08,05,07,00,9.40
2013,08,05,07,01,9.40
2013,08,05,07,02,9.40
2013,08,05,07,03,9.50
2013,08,05,07,04,9.50
2013,08,05,07,05,9.50
2013,08,05,07,06,9.50
2013,08,05,07,07,9.60
2013,08,05,07,08,9.60
2013,08,05,07,09,9.60
2013,08,05,07,10,9.60
2013,08,05,07,11,9.60
2013,08,05,07,12,9.60
2013,08,05,07,13,9.60
2013,08,05,07,14,9.60
2013,08,05,07,15,9.60
2013,08,05,07,16,9.60
2013,08,05,07,17,9.60
2013,08,05,07,18,9.70
2013,08,05,07,19,9.70
2013,08,05,07,20,9.70
2013,08,05,07,21,9.70
2013,08,05,07,22,9.70
2013,08,05,07,23,9.80
2013,08,05,07,24,9.80
2013,08,05,07,25,9.90
2013,08,05,07,26,10.00
2013,08,05,07,27,10.10
2013,08,05,07,28,10.10
2013,08,05,07,29,10.20
2013,08,05,07,30,10.30
2013,08,05,07,31,10.40
2013,08,05,07,32,10.50
2013,08,05,07,33,10.60
2013,08,05,07,34,10.60
2013,08,05,07,35,10.70
2013,08,05,07,36,10.80
2013,08,05,07,37,10.90
2013,08,05,07,38,11.00
2013,08,05,07,39,11.10
2013,08,05,07,40,11.20
2013,08,05,07,41,11.20
2013,08,05,07,42,11.30
2013,08,05,07,43,11.40
2013,08,05,07,44,11.40
2013,08,05,07,45,11.50
2013,08,05,07,46,11.60
2013,08,05,07,47,11.70
2013,08,05,07,48,11.80
2013,08,05,07,49,11.80
2013,08,05,07,50,11.90
2013,08,05,07,51,12.00
2013,08,05,07,52,12.10
2013,08,05,07,53,12.20
2013,08,05,07,54,12.30
2013,08,05,07,55,12.40
2013,08,05,07,56,12.50
2013,08,05,07,57,12.50
2013,08,05,07,58,12.70
2013,08,05,07,59,12.70
2013,08,05,08,00,12.80
2013,08,05,08,01,12.80
2013,08,05,08,02,12.90
2013,08,05,08,03,12.90
2013,08,05,08,04,13.00
2013,08,05,08,05,13.10
2013,08,05,08,06,13.20
2013,08,05,08,07,13.20
2013,08,05,08,08,13.30
2013,08,05,08,09,13.40
2013,08,05,08,10,13.50
2013,08,05,08,11,13.60
2013,08,05,08,12,13.70
2013,08,05,08,13,13.70
2013,08,05,08,14,13.80
2013,08,05,08,15,13.80
2013,08,05,08,16,13.90
2013,08,05,08,17,13.90
2013,08,05,08,18,13.90
2013,08,05,08,19,13.90
2013,08,05,08,20,13.90
2013,08,05,08,21,13.90
2013,08,05,08,22,13.90
2013,08,05,08,23,13.90
2013,08,05,08,24,13.90
2013,08,05,08,25,13.90
2013,08,05,08,26,13.90
2013,08,05,08,27,13.90
2013,08,05,08,28,14.00
2013,08,05,08,29,14.00
2013,08,05,08,30,14.10
2013,08,05,08,31,14.10
2013,08,05,08,32,14.10
2013,08,05,08,33,14.20
2013,08,05,08,34,14.20
2013,08,05,08,35,14.20
2013,08,05,08,36,14.30
2013,08,05,08,37,14.40
2013,08,05,08,38,14.40
2013,08,05,08,39,14.50
2013,08,05,08,40,14.60
2013,08,05,08,41,14.70
2013,08,05,08,42,14.70
2013,08,05,08,43,14.70
2013,08,05,08,44,14.70
2013,08,05,08,45,14.60
2013,08,05,08,46,14.60
2013,08,05,08,47,14.60
2013,08,05,08,48,14.60
2013,08,05,08,49,14.60
2013,08,05,08,50,14.60
2013,08,05,08,51,14.60
2013,08,05,08,52,14.50
2013,08,05,08,53,14.50
2013,08,05,08,54,14.50
2013,08,05,08,55,14.50
2013,08,05,08,56,14.50
2013,08,05,08,57,14.50
2013,08,05,08,58,14.50
2013,08,05,08,59,14.60
2013,08,05,09,00,14.60
2013,08,05,09,01,14.60
2013,08,05,09,02,14.70
2013,08,05,09,03,14.70
2013,08,05,09,04,14.70
2013,08,05,09,05,14.80
2013,08,05,09,06,14.80
2013,08,05,09,07,14.80
2013,08,05,09,08,14.80
2013,08,05,09,09,14.80
2013,08,05,09,10,14.80
2013,08,05,09,11,14.80
2013,08,05,09,12,14.80
2013,08,05,09,13,14.80
2013,08,05,09,14,14.80
2013,08,05,09,15,14.80
2013,08,05,09,16,14.80
2013,08,05,09,17,14.90
2013,08,05,09,18,14.90
2013,08,05,09,19,15.00
2013,08,05,09,20,15.00
2013,08,05,09,21,15.10
2013,08,05,09,22,15.10
2013,08,05,09,23,15.20
2013,08,05,09,24,15.20
2013,08,05,09,25,15.20
2013,08,05,09,26,15.30
2013,08,05,09,27,15.30
2013,08,05,09,28,15.40
2013,08,05,09,29,15.40
2013,08,05,09,30,15.40
2013,08,05,09,31,15.40
2013,08,05,09,32,15.40
2013,08,05,09,33,15.50
2013,08,05,09,34,15.50
2013,08,05,09,35,15.60
2013,08,05,09,36,15.60
2013,08,05,09,37,15.60
2013,08,05,09,38,15.70
2013,08,05,09,39,15.70
2013,08,05,09,40,15.80
2013,08,05,09,41,15.80
2013,08,05,09,42,15.90
2013,08,05,09,43,15.90
2013,08,05,09,44,16.00
2013,08,05,09,45,16.10
2013,08,05,09,46,16.20
2013,08,05,09,47,16.30
2013,08,05,09,48,16.40
2013,08,05,09,49,16.40
2013,08,05,09,50,16.50
2013,08,05,09,51,16.50
2013,08,05,09,52,16.50
2013,08,05,09,53,16.50
2013,08,05,09,54,16.60
2013,08,05,09,55,16.60
2013,08,05,09,56,16.60
2013,08,05,09,57,16.70
2013,08,05,09,58,16.70
2013,08,05,09,59,16.80
2013,08,05,10,00,16.80
2013,08,05,10,01,16.90
2013,08,05,10,02,17.10
2013,08,05,10,03,17.20
2013,08,05,10,04,17.30
2013,08,05,10,05,17.40
2013,08,05,10,06,17.50
2013,08,05,10,07,17.50
2013,08,05,10,08,17.50
2013,08,05,10,09,17.50
2013,08,05,10,10,17.50
2013,08,05,10,11,17.50
2013,08,05,10,12,17.60
2013,08,05,10,13,17.60
2013,08,05,10,14,17.70
2013,08,05,10,15,17.80
2013,08,05,10,16,17.90
2013,08,05,10,17,17.90
2013,08,05,10,18,17.90
2013,08,05,10,19,18.00
2013,08,05,10,20,18.00
2013,08,05,10,21,18.00
2013,08,05,10,22,18.00
2013,08,05,10,23,18.00
2013,08,05,10,24,18.00
2013,08,05,10,25,18.10
2013,08,05,10,26,18.10
2013,08,05,10,27,18.10
2013,08,05,10,28,18.20
2013,08,05,10,29,18.20
2013,08,05,10,30,18.30
2013,08,05,10,31,18.30
2013,08,05,10,32,18.30
2013,08,05,10,33,18.40
2013,08,05,10,34,18.40
2013,08,05,10,35,18.50
2013,08,05,10,36,18.50
2013,08,05,10,37,18.60
2013,08,05,10,38,18.60
2013,08,05,10,39,18.70
2013,08,05,10,40,18.80
2013,08,05,10,41,19.00
2013,08,05,10,42,19.10
2013,08,05,10,43,19.30
2013,08,05,10,44,19.40
2013,08,05,10,45,19.40
2013,08,05,10,46,19.50
2013,08,05,10,47,19.50
2013,08,05,10,48,19.50
2013,08,05,10,49,19.50
2013,08,05,10,50,19.50
2013,08,05,10,51,19.60
2013,08,05,10,52,19.60
2013,08,05,10,53,19.60
2013,08,05,10,54,19.60
2013,08,05,10,55,19.70
2013,08,05,10,56,19.80
2013,08,05,10,57,19.80
2013,08,05,10,58,19.90
2013,08,05,10,59,20.00
2013,08,05,11,00,20.20
2013,08,05,11,01,20.30
2013,08,05,11,02,20.40
2013,08,05,11,03,20.50
2013,08,05,11,04,20.50
2013,08,05,11,05,20.60
2013,08,05,11,06,20.60
2013,08,05,11,07,20.70
2013,08,05,11,08,20.70
2013,08,05,11,09,20.80
2013,08,05,11,10,20.90
2013,08,05,11,11,21.00
2013,08,05,11,12,21.10
2013,08,05,11,13,21.20
2013,08,05,11,14,21.20
2013,08,05,11,15,21.20
2013,08,05,11,16,21.20
2013,08,05,11,17,21.20
2013,08,05,11,18,21.20
2013,08,05,11,19,21.20
2013,08,05,11,20,21.20
2013,08,05,11,21,21.20
2013,08,05,11,22,21.10
2013,08,05,11,23,21.10
2013,08,05,11,24,21.10
2013,08,05,11,25,21.20
2013,08,05,11,26,21.20
2013,08,05,11,27,21.30
2013,08,05,11,28,21.40
2013,08,05,11,29,21.50
2013,08,05,11,30,21.60
2013,08,05,11,31,21.60
2013,08,05,11,32,21.70
2013,08,05,11,33,21.70
2013,08,05,11,34,21.80
2013,08,05,11,35,21.90
2013,08,05,11,36,22.00
2013,08,05,11,37,22.10
2013,08,05,11,38,22.20
2013,08,05,11,39,22.30
2013,08,05,11,40,22.50
2013,08,05,11,41,22.60
2013,08,05,11,42,22.70
2013,08,05,11,43,22.90
2013,08,05,11,44,22.90
2013,08,05,11,45,23.00
2013,08,05,11,46,22.90
2013,08,05,11,47,22.90
2013,08,05,11,48,22.90
2013,08,05,11,49,22.90
2013,08,05,11,50,22.90
2013,08,05,11,51,23.00
2013,08,05,11,52,23.10
2013,08,05,11,53,23.30
2013,08,05,11,54,23.50
2013,08,05,11,55,23.60
2013,08,05,11,56,23.80
2013,08,05,11,57,23.90
2013,08,05,11,58,24.00
2013,08,05,11,59,24.10
2013,08,05,12,00,24.20
2013,08,05,12,01,24.30
2013,08,05,12,02,24.40
2013,08,05,12,03,24.50
2013,08,05,12,04,24.60
2013,08,05,12,05,24.70
2013,08,05,12,06,24.80
2013,08,05,12,07,25.00
2013,08,05,12,08,25.00
2013,08,05,12,09,25.00
2013,08,05,12,10,25.10
2013,08,05,12,11,25.10
2013,08,05,12,12,25.10
2013,08,05,12,13,25.10
2013,08,05,12,14,25.10
2013,08,05,12,15,25.20
2013,08,05,12,16,25.20
2013,08,05,12,17,25.30
2013,08,05,12,18,25.30
2013,08,05,12,19,25.30
2013,08,05,12,20,25.30
2013,08,05,12,21,25.30
2013,08,05,12,22,25.30
2013,08,05,12,23,25.30
2013,08,05,12,24,25.40
2013,08,05,12,25,25.40
2013,08,05,12,26,25.50
2013,08,05,12,27,25.50
2013,08,05,12,28,25.60
2013,08,05,12,29,25.70
2013,08,05,12,30,25.80
2013,08,05,12,31,25.90
2013,08,05,12,32,26.00
2013,08,05,12,33,26.10
2013,08,05,12,34,26.20
2013,08,05,12,35,26.30
2013,08,05,12,36,26.50
2013,08,05,12,37,26.60
2013,08,05,12,38,26.60
2013,08,05,12,39,26.60
2013,08,05,12,40,26.50
2013,08,05,12,41,26.50
2013,08,05,12,42,26.40
2013,08,05,12,43,26.50
2013,08,05,12,44,26.60
2013,08,05,12,45,26.70
2013,08,05,12,46,26.80
2013,08,05,12,47,26.90
2013,08,05,12,48,27.00
2013,08,05,12,49,27.10
2013,08,05,12,50,27.20
2013,08,05,12,51,27.30
2013,08,05,12,52,27.50
2013,08,05,12,53,27.60
2013,08,05,12,54,27.60
2013,08,05,12,55,27.70
2013,08,05,12,56,27.70
2013,08,05,12,57,27.70
2013,08,05,12,58,27.70
2013,08,05,12,59,27.70
2013,08,05,13,00,27.70
2013,08,05,13,01,27.60
2013,08,05,13,02,27.70
2013,08,05,13,03,27.80
2013,08,05,13,04,27.90
2013,08,05,13,05,28.00
2013,08,05,13,06,28.10
2013,08,05,13,07,28.00
2013,08,05,13,08,28.00
2013,08,05,13,09,28.00
2013,08,05,13,10,28.10
2013,08,05,13,11,28.10
2013,08,05,13,12,28.00
2013,08,05,13,13,28.00
2013,08,05,13,14,27.90
2013,08,05,13,15,27.90
2013,08,05,13,16,27.90
2013,08,05,13,17,27.90
2013,08,05,13,18,27.90
2013,08,05,13,19,27.90
2013,08,05,13,20,28.00
2013,08,05,13,21,28.10
2013,08,05,13,22,28.10
2013,08,05,13,23,28.20
2013,08,05,13,24,28.20
2013,08,05,13,25,28.10
2013,08,05,13,26,28.10
2013,08,05,13,27,28.00
2013,08,05,13,28,27.90
2013,08,05,13,29,27.80
2013,08,05,13,30,27.80
2013,08,05,13,31,27.70
2013,08,05,13,32,27.80
2013,08,05,13,33,27.90
2013,08,05,13,34,27.90
2013,08,05,13,35,27.90
2013,08,05,13,36,27.90
2013,08,05,13,37,27.90
2013,08,05,13,38,28.00
2013,08,05,13,39,28.10
2013,08,05,13,40,28.30
2013,08,05,13,41,28.40
2013,08,05,13,42,28.50
2013,08,05,13,43,28.60
2013,08,05,13,44,28.50
2013,08,05,13,45,28.50
2013,08,05,13,46,28.50
2013,08,05,13,47,28.50
2013,08,05,13,48,28.50
2013,08,05,13,49,28.60
2013,08,05,13,50,28.60
2013,08,05,13,51,28.60
2013,08,05,13,52,28.50
2013,08,05,13,53,28.50
2013,08,05,13,54,28.40
2013,08,05,13,55,28.40
2013,08,05,13,56,28.50
2013,08,05,13,57,28.50
2013,08,05,13,58,28.40
2013,08,05,13,59,28.40
2013,08,05,14,00,28.50
2013,08,05,14,01,28.60
2013,08,05,14,02,28.60
2013,08,05,14,03,28.70
2013,08,05,14,04,28.70
2013,08,05,14,05,28.70
2013,08,05,14,06,28.60
2013,08,05,14,07,28.50
2013,08,05,14,08,28.40
2013,08,05,14,09,28.40
2013,08,05,14,10,28.40
2013,08,05,14,11,28.40
2013,08,05,14,12,28.50
2013,08,05,14,13,28.50
2013,08,05,14,14,28.50
2013,08,05,14,15,28.40
2013,08,05,14,16,28.40
2013,08,05,14,17,28.40
2013,08,05,14,18,28.50
2013,08,05,14,19,28.50
2013,08,05,14,20,28.60
2013,08,05,14,21,28.60
2013,08,05,14,22,28.60
2013,08,05,14,23,28.60
2013,08,05,14,24,28.50
2013,08,05,14,25,28.60
2013,08,05,14,26,28.60
2013,08,05,14,27,28.60
2013,08,05,14,28,28.60
2013,08,05,14,29,28.60
2013,08,05,14,30,28.60
2013,08,05,14,31,28.60
2013,08,05,14,32,28.60
2013,08,05,14,33,28.60
2013,08,05,14,34,28.70
2013,08,05,14,35,28.70
2013,08,05,14,36,28.70
2013,08,05,14,37,28.70
2013,08,05,14,38,28.70
2013,08,05,14,39,28.70
2013,08,05,14,40,28.70
2013,08,05,14,41,28.70
2013,08,05,14,42,28.70
2013,08,05,14,43,28.80
2013,08,05,14,44,28.80
2013,08,05,14,45,28.80
2013,08,05,14,46,28.90
2013,08,05,14,47,28.90
2013,08,05,14,48,28.90
2013,08,05,14,49,28.90
2013,08,05,14,50,29.00
2013,08,05,14,51,29.00
2013,08,05,14,52,29.10
2013,08,05,14,53,29.10
2013,08,05,14,54,29.00
2013,08,05,14,55,28.90
2013,08,05,14,56,28.90
2013,08,05,14,57,28.90
2013,08,05,14,58,28.80
2013,08,05,14,59,28.80
2013,08,05,15,00,28.80
2013,08,05,15,01,28.90
2013,08,05,15,02,28.90
2013,08,05,15,03,28.90
2013,08,05,15,04,28.90
2013,08,05,15,05,28.90
2013,08,05,15,06,28.90
2013,08,05,15,07,28.90
2013,08,05,15,08,28.90
2013,08,05,15,09,28.90
2013,08,05,15,10,28.90
2013,08,05,15,11,28.90
2013,08,05,15,12,28.80
2013,08,05,15,13,28.80
2013,08,05,15,14,28.80
2013,08,05,15,15,28.90
2013,08,05,15,16,28.90
2013,08,05,15,17,28.90
2013,08,05,15,18,28.90
2013,08,05,15,19,28.90
2013,08,05,15,20,28.90
2013,08,05,15,21,29.00
2013,08,05,15,22,29.00
2013,08,05,15,23,29.00
2013,08,05,15,24,28.90
2013,08,05,15,25,28.90
2013,08,05,15,26,28.90
2013,08,05,15,27,28.90
2013,08,05,15,28,28.90
2013,08,05,15,29,28.90
2013,08,05,15,30,28.90
2013,08,05,15,31,28.90
2013,08,05,15,32,29.00
2013,08,05,15,33,29.00
2013,08,05,15,34,29.00
2013,08,05,15,35,28.90
2013,08,05,15,36,28.90
2013,08,05,15,37,28.90
2013,08,05,15,38,28.90
2013,08,05,15,39,29.00
2013,08,05,15,40,29.00
2013,08,05,15,41,29.00
2013,08,05,15,42,29.00
2013,08,05,15,43,29.00
2013,08,05,15,44,28.90
2013,08,05,15,45,28.90
2013,08,05,15,46,29.00
2013,08,05,15,47,29.00
2013,08,05,15,48,29.00
2013,08,05,15,49,29.10
2013,08,05,15,50,29.10
2013,08,05,15,51,29.00
2013,08,05,15,52,29.00
2013,08,05,15,53,28.90
2013,08,05,15,54,28.90
2013,08,05,15,55,28.80
2013,08,05,15,56,28.80
2013,08,05,15,57,28.80
2013,08,05,15,58,28.80
2013,08,05,15,59,28.80
2013,08,05,16,00,28.80
2013,08,05,16,01,28.80
2013,08,05,16,02,28.80
2013,08,05,16,03,28.80
2013,08,05,16,04,28.80
2013,08,05,16,05,28.80
2013,08,05,16,06,28.80
2013,08,05,16,07,28.80
2013,08,05,16,08,28.80
2013,08,05,16,09,28.80
2013,08,05,16,10,28.90
2013,08,05,16,11,28.90
2013,08,05,16,12,28.90
2013,08,05,16,13,28.90
2013,08,05,16,14,28.90
2013,08,05,16,15,28.90
2013,08,05,16,16,28.90
2013,08,05,16,17,28.90
2013,08,05,16,18,28.90
2013,08,05,16,19,29.00
2013,08,05,16,20,29.00
2013,08,05,16,21,29.10
2013,08,05,16,22,29.10
2013,08,05,16,23,29.00
2013,08,05,16,24,28.90
2013,08,05,16,25,28.80
2013,08,05,16,26,28.90
2013,08,05,16,27,28.90
2013,08,05,16,28,28.90
2013,08,05,16,29,28.90
2013,08,05,16,30,28.90
2013,08,05,16,31,28.90
2013,08,05,16,32,28.90
2013,08,05,16,33,28.90
2013,08,05,16,34,28.80
2013,08,05,16,35,28.80
2013,08,05,16,36,28.70
2013,08,05,16,37,28.70
2013,08,05,16,38,28.70
2013,08,05,16,39,28.60
2013,08,05,16,40,28.60
2013,08,05,16,41,28.50
2013,08,05,16,42,28.50
2013,08,05,16,43,28.50
2013,08,05,16,44,28.50
2013,08,05,16,45,28.50
2013,08,05,16,46,28.60
2013,08,05,16,47,28.60
2013,08,05,16,48,28.60
2013,08,05,16,49,28.60
2013,08,05,16,50,28.60
2013,08,05,16,51,28.60
2013,08,05,16,52,28.60
2013,08,05,16,53,28.60
2013,08,05,16,54,28.50
2013,08,05,16,55,28.50
2013,08,05,16,56,28.40
2013,08,05,16,57,28.50
2013,08,05,16,58,28.50
2013,08,05,16,59,28.50
2013,08,05,17,00,28.50
2013,08,05,17,01,28.50
2013,08,05,17,02,28.40
2013,08,05,17,03,28.40
2013,08,05,17,04,28.40
2013,08,05,17,05,28.40
2013,08,05,17,06,28.30
2013,08,05,17,07,28.30
2013,08,05,17,08,28.30
2013,08,05,17,09,28.30
2013,08,05,17,10,28.30
2013,08,05,17,11,28.30
2013,08,05,17,12,28.20
2013,08,05,17,13,28.20
2013,08,05,17,14,28.20
2013,08,05,17,15,28.20
2013,08,05,17,16,28.20
2013,08,05,17,17,28.10
2013,08,05,17,18,28.10
2013,08,05,17,19,28.10
2013,08,05,17,20,28.00
2013,08,05,17,21,28.00
2013,08,05,17,22,28.10
2013,08,05,17,23,28.10
2013,08,05,17,24,28.10
2013,08,05,17,25,28.10
2013,08,05,17,26,28.10